Location: Skalnate Pleso
(49.1889°N, 20.2450°E)
Time: 23:55:14
(UTC+02:00)

COSMOS 2428 - Pass Details

Date: 29 February 2020
Orbit: 846 x 856 km, 70.9° (Epoch: 06 April)

Event Time Altitude Azimuth Distance (km) Brightness Sun altitude
Exits shadow 03:04:27 12° 339° (NNW) 2,393 5.1 -32.3°
Drops below altitude 10° 03:06:05 10° 355° (N) 2,500 5.4 -32.1°
Sets 03:10:36 0° 28° (NNE) 3,438 6.6 -31.4°
